Hourly Weather Dzhalalabad

Today, 8 July, Wednesday

Time Temperature Precipitation Wind Pressure Humidity
00:00 +26°C° 0 mm 2 mps 690 mmHg 23%
01:00 +25°C° 0 mm 2 mps 690 mmHg 24%
02:00 +25°C° 0 mm 2 mps 689 mmHg 25%
03:00 +24°C° 0 mm 2 mps 689 mmHg 25%
04:00 +24°C° 0 mm 2 mps 689 mmHg 26%
05:00 +24°C° 0 mm 2 mps 690 mmHg 26%
06:00 +26°C° 0 mm 2 mps 690 mmHg 24%
07:00 +29°C° 0 mm 2 mps 690 mmHg 21%
08:00 +31°C° 0 mm 2 mps 690 mmHg 18%
09:00 +34°C° 0 mm 2 mps 690 mmHg 17%
10:00 +36°C° 0 mm 2 mps 690 mmHg 15%
11:00 +37°C° 0 mm 2 mps 690 mmHg 14%
12:00 +38°C° 0 mm 3 mps 690 mmHg 13%
13:00 +39°C° 0 mm 3 mps 690 mmHg 12%
14:00 +40°C° 0 mm 3 mps 690 mmHg 11%
15:00 +40°C° 0 mm 5 mps 690 mmHg 13%
16:00 +38°C° 0 mm 6 mps 690 mmHg 16%
17:00 +37°C° 0 mm 8 mps 691 mmHg 18%
18:00 +34°C° 0 mm 7 mps 691 mmHg 21%
19:00 +33°C° 0 mm 5 mps 691 mmHg 24%
20:00 +30°C° 0 mm 4 mps 692 mmHg 27%
21:00 +29°C° 0 mm 3 mps 692 mmHg 28%
22:00 +28°C° 0 mm 2 mps 692 mmHg 30%
23:00 +27°C° 0 mm 2 mps 692 mmHg 32%

Tomorrow, 9 July, Thursday

Time Temperature Precipitation Wind Pressure Humidity
00:00 +27°C° 0 mm 2 mps 691 mmHg 33%
01:00 +26°C° 0 mm 2 mps 691 mmHg 33%
02:00 +26°C° 0 mm 2 mps 690 mmHg 34%
03:00 +25°C° 0 mm 2 mps 690 mmHg 35%
04:00 +25°C° 0 mm 2 mps 690 mmHg 35%
05:00 +24°C° 0 mm 2 mps 690 mmHg 36%
06:00 +27°C° 0 mm 2 mps 690 mmHg 32%
07:00 +29°C° 0 mm 2 mps 691 mmHg 28%
08:00 +31°C° 0 mm 1 mps 691 mmHg 24%
09:00 +33°C° 0 mm 1 mps 691 mmHg 22%
10:00 +35°C° 0 mm 1 mps 690 mmHg 20%
11:00 +37°C° 0 mm 1 mps 690 mmHg 17%
12:00 +38°C° 0 mm 2 mps 690 mmHg 16%
13:00 +39°C° 0 mm 3 mps 689 mmHg 15%
14:00 +40°C° 0 mm 4 mps 689 mmHg 14%
15:00 +40°C° 0 mm 4 mps 689 mmHg 13%
16:00 +40°C° 0 mm 4 mps 689 mmHg 13%
17:00 +40°C° 0 mm 4 mps 689 mmHg 13%
18:00 +37°C° 0.1 mm 4 mps 689 mmHg 17%
19:00 +34°C° 0.1 mm 3 mps 689 mmHg 22%
20:00 +31°C° 0.1 mm 3 mps 689 mmHg 26%
21:00 +29°C° 0.2 mm 2 mps 689 mmHg 29%
22:00 +28°C° 0.2 mm 2 mps 689 mmHg 32%
23:00 +27°C° 0.2 mm 2 mps 689 mmHg 36%

Day after tomorrow, 10 July, Friday

Time Temperature Precipitation Wind Pressure Humidity
00:00 +27°C° 0.1 mm 3 mps 689 mmHg 38%
01:00 +26°C° 0.1 mm 3 mps 689 mmHg 40%
02:00 +25°C° 0.1 mm 4 mps 689 mmHg 42%
03:00 +25°C° 0 mm 3 mps 689 mmHg 42%
04:00 +25°C° 0 mm 3 mps 689 mmHg 42%
05:00 +25°C° 0 mm 3 mps 689 mmHg 42%
06:00 +27°C° 0 mm 3 mps 689 mmHg 37%
07:00 +29°C° 0 mm 2 mps 689 mmHg 31%
08:00 +31°C° 0 mm 2 mps 689 mmHg 26%
09:00 +34°C° 0 mm 3 mps 689 mmHg 23%
10:00 +35°C° 0 mm 4 mps 689 mmHg 20%
11:00 +37°C° 0 mm 4 mps 689 mmHg 17%
12:00 +37°C° 0 mm 4 mps 689 mmHg 16%
13:00 +38°C° 0 mm 4 mps 689 mmHg 15%
14:00 +38°C° 0 mm 4 mps 689 mmHg 14%
15:00 +39°C° 0 mm 5 mps 689 mmHg 15%
16:00 +39°C° 0 mm 6 mps 689 mmHg 16%
17:00 +38°C° 0 mm 7 mps 689 mmHg 16%
18:00 +34°C° 0 mm 6 mps 689 mmHg 23%
19:00 +32°C° 0 mm 4 mps 689 mmHg 29%
20:00 +28°C° 0 mm 2 mps 689 mmHg 35%
21:00 +27°C° 0 mm 2 mps 690 mmHg 37%
22:00 +27°C° 0 mm 2 mps 690 mmHg 38%
23:00 +26°C° 0 mm 2 mps 690 mmHg 39%

11 July, Saturday

Time Temperature Precipitation Wind Pressure Humidity
00:00 +26°C° 0 mm 2 mps 690 mmHg 41%
01:00 +25°C° 0 mm 2 mps 690 mmHg 43%
02:00 +24°C° 0 mm 2 mps 689 mmHg 45%
03:00 +24°C° 0 mm 2 mps 689 mmHg 46%
04:00 +24°C° 0 mm 2 mps 689 mmHg 46%
05:00 +24°C° 0 mm 2 mps 689 mmHg 46%
06:00 +25°C° 0.1 mm 2 mps 689 mmHg 42%
07:00 +27°C° 0.1 mm 2 mps 689 mmHg 38%
08:00 +29°C° 0.1 mm 2 mps 690 mmHg 34%
09:00 +30°C° 0 mm 2 mps 689 mmHg 30%
10:00 +32°C° 0 mm 2 mps 689 mmHg 27%
11:00 +34°C° 0 mm 2 mps 689 mmHg 24%
12:00 +35°C° 0 mm 3 mps 689 mmHg 22%
13:00 +36°C° 0 mm 3 mps 688 mmHg 20%
14:00 +36°C° 0 mm 3 mps 688 mmHg 19%
15:00 +36°C° 0 mm 3 mps 688 mmHg 19%
16:00 +36°C° 0 mm 3 mps 689 mmHg 19%
17:00 +36°C° 0 mm 3 mps 689 mmHg 18%
18:00 +34°C° 0 mm 3 mps 689 mmHg 23%
19:00 +31°C° 0 mm 3 mps 689 mmHg 27%
20:00 +29°C° 0 mm 4 mps 689 mmHg 31%
21:00 +28°C° 0 mm 3 mps 689 mmHg 33%
22:00 +27°C° 0 mm 2 mps 689 mmHg 35%
23:00 +27°C° 0 mm 1 mps 689 mmHg 37%

12 July, Sunday

Time Temperature Precipitation Wind Pressure Humidity
00:00 +26°C° 0 mm 2 mps 689 mmHg 38%
01:00 +26°C° 0 mm 2 mps 688 mmHg 39%
02:00 +25°C° 0 mm 2 mps 688 mmHg 41%
03:00 +25°C° 0.1 mm 2 mps 688 mmHg 42%
04:00 +24°C° 0.1 mm 2 mps 688 mmHg 43%
05:00 +24°C° 0.1 mm 1 mps 688 mmHg 44%
06:00 +25°C° 0.2 mm 1 mps 688 mmHg 42%
07:00 +27°C° 0.2 mm 1 mps 688 mmHg 39%
08:00 +28°C° 0.2 mm 1 mps 688 mmHg 37%
09:00 +30°C° 0 mm 2 mps 688 mmHg 34%
10:00 +31°C° 0 mm 2 mps 688 mmHg 31%
11:00 +34°C° 0 mm 3 mps 688 mmHg 27%
12:00 +35°C° 0 mm 3 mps 688 mmHg 25%
13:00 +36°C° 0 mm 3 mps 687 mmHg 23%
14:00 +37°C° 0 mm 3 mps 687 mmHg 20%
15:00 +37°C° 0.1 mm 3 mps 687 mmHg 20%
16:00 +37°C° 0.1 mm 3 mps 688 mmHg 19%
17:00 +37°C° 0.1 mm 2 mps 688 mmHg 18%
18:00 +35°C° 0 mm 2 mps 688 mmHg 21%
19:00 +32°C° 0 mm 2 mps 688 mmHg 25%
20:00 +30°C° 0 mm 2 mps 688 mmHg 28%
21:00 +29°C° 0 mm 2 mps 688 mmHg 30%
22:00 +28°C° 0 mm 2 mps 688 mmHg 32%
23:00 +27°C° 0 mm 2 mps 688 mmHg 34%

13 July, Monday

Time Temperature Precipitation Wind Pressure Humidity
00:00 +27°C° 0 mm 2 mps 688 mmHg 36%
01:00 +27°C° 0 mm 1 mps 688 mmHg 37%
02:00 +26°C° 0 mm 1 mps 687 mmHg 38%
03:00 +26°C° 0 mm 1 mps 687 mmHg 38%
04:00 +26°C° 0 mm 1 mps 687 mmHg 39%
05:00 +26°C° 0 mm 1 mps 687 mmHg 39%
06:00 +27°C° 0.2 mm 1 mps 687 mmHg 37%
07:00 +29°C° 0.2 mm 1 mps 688 mmHg 34%
08:00 +31°C° 0.2 mm 1 mps 688 mmHg 32%
09:00 +32°C° 0 mm 1 mps 688 mmHg 29%
10:00 +35°C° 0 mm 2 mps 688 mmHg 26%
11:00 +36°C° 0 mm 2 mps 688 mmHg 23%
12:00 +37°C° 0.1 mm 3 mps 688 mmHg 21%
13:00 +38°C° 0.1 mm 3 mps 688 mmHg 19%
14:00 +39°C° 0.1 mm 3 mps 688 mmHg 17%
15:00 +39°C° 0 mm 3 mps 688 mmHg 17%
16:00 +38°C° 0 mm 3 mps 688 mmHg 17%
17:00 +38°C° 0 mm 3 mps 688 mmHg 17%
18:00 +36°C° 0.1 mm 3 mps 688 mmHg 22%
19:00 +34°C° 0.1 mm 3 mps 688 mmHg 27%
20:00 +30°C° 0.1 mm 2 mps 689 mmHg 32%
21:00 +29°C° 0.4 mm 2 mps 688 mmHg 37%
22:00 +27°C° 0.4 mm 2 mps 688 mmHg 42%
23:00 +26°C° 0.4 mm 2 mps 688 mmHg 47%
Show more